Powrót do katalogu

SL-14 R/B

AktywnyPO
NORAD 15945·ROCKET BODY·🇷🇺 Russia

Wystrzelony Aug 8, 1985 z Plesetsk Cosmodrome

Loading…

Następne Przeloty (najbliższe 24 godziny)

TLE

ŚwieżeSource: Space-Track

Epoka: Sep 14, 2026, 06:57 UTC

1 15945U 85069B   26257.29003895  .00000351  00000-0  36756-4 0  9990
2 15945  82.5276 207.5589 0017243 289.4045  70.5307 14.86569316200857

Śledź SL-14 R/B w czasie rzeczywistym z AllMySat

Download on the App Store